Weather History for Glendive, MT

Change the Weather History Date:

Saturday, November 17, 2012

  Actual Average Record
Temperature  
Mean Temperature 33 °F -  
Max Temperature 42 °F 37 °F 60 °F (2001)
Min Temperature 24 °F 18 °F -5 °F (1996)
Degree Days  
Heating Degree Days 32    
Moisture  
Dew Point 28 °F    
Average Humidity 80    
Maximum Humidity 100    
Minimum Humidity 61    
Precipitation  
Precipitation 0.00 in - - ()
Sea Level Pressure  
Sea Level Pressure 29.95 in    
Wind  
Wind Speed 4 mph (SSW)    
Max Wind Speed 12 mph    
Max Gust Speed -    
Visibility 10 miles    
Events      
Averages and records for this station are not official NWS values.
T = Trace of Precipitation, MM = Missing Value Source: NWS Daily Summary

Daily Weather History Graph

Daily Weather History Graph

Search for Another Location

Airport:

Trip Planner

Search our weather history database for the weather conditions in past years. The results will help you decide how hot, cold, wet, or windy it might be!

Date:

Astronomy

Nov. 17, 2012 Rise Set
Actual Time 7:06 AM MST 4:21 PM MST
Civil Twilight 6:33 AM MST 4:54 PM MST
Nautical Twilight 5:55 AM MST 5:32 PM MST
Astronomical Twilight 5:19 AM MST 6:08 PM MST
Moon 10:53 AM MST (11/17) 8:35 PM MST (11/17)
Length of Visible Light 10h 21m
Length of Day
9h 14m
Waxing Crescent, 21% of the Moon is Illuminated
Nov 17
Waxing Crescent
Nov 20
First Quarter
Nov 28
Full
Dec 6
Last Quarter
Dec 13
New

Hourly Weather History & Observations

Time (MST) Temp. Windchill Dew Point Humidity Pressure Visibility Wind Dir Wind Speed Gust Speed Precip Events Conditions
12:15 AM 28.4 °F 24.6 °F 24.8 °F 86% 29.96 in 10.0 mi NW 3.5 mph - N/A   Clear
12:35 AM 28.4 °F 24.6 °F 24.8 °F 86% 29.96 in 10.0 mi NW 3.5 mph - N/A   Clear
12:55 AM 26.6 °F - 24.8 °F 93% 29.95 in 10.0 mi Calm Calm - N/A   Clear
1:15 AM 28.4 °F 23.3 °F 24.8 °F 86% 29.95 in 10.0 mi NW 4.6 mph - N/A   Clear
1:35 AM 26.6 °F - 19.4 °F 74% 29.95 in 10.0 mi Calm Calm - N/A   Clear
1:55 AM 26.6 °F - 23.0 °F 86% 29.95 in 10.0 mi Calm Calm - N/A   Clear
2:15 AM 28.4 °F 24.6 °F 26.6 °F 93% 29.96 in 10.0 mi SE 3.5 mph - N/A   Clear
2:35 AM 24.8 °F - 21.2 °F 86% 29.96 in 10.0 mi Calm Calm - N/A   Clear
2:55 AM 26.6 °F - 23.0 °F 86% 29.96 in 10.0 mi Calm Calm - N/A   Clear
3:15 AM 26.6 °F 22.6 °F 23.0 °F 86% 29.96 in 10.0 mi SE 3.5 mph - N/A   Clear
3:55 AM 28.4 °F - 24.8 °F 86% 29.96 in 10.0 mi Calm Calm - N/A   Partly Cloudy
4:15 AM 28.4 °F - 24.8 °F 86% 29.97 in 10.0 mi Calm Calm - N/A   Partly Cloudy
4:35 AM 28.4 °F 24.6 °F 26.6 °F 93% 29.96 in 10.0 mi ENE 3.5 mph - N/A   Clear
4:55 AM 30.2 °F 26.7 °F 26.6 °F 86% 29.97 in 10.0 mi SSW 3.5 mph - N/A   Clear
5:35 AM 30.2 °F 24.3 °F 26.6 °F 86% 29.97 in 10.0 mi South 5.8 mph - N/A   Partly Cloudy
5:55 AM 30.2 °F 23.4 °F 26.6 °F 86% 29.98 in 10.0 mi West 6.9 mph - N/A   Scattered Clouds
6:15 AM 30.2 °F 21.9 °F 26.6 °F 86% 29.98 in 10.0 mi SW 9.2 mph - N/A   Mostly Cloudy
6:35 AM 30.2 °F 23.4 °F 26.6 °F 86% 29.98 in 10.0 mi SW 6.9 mph - N/A   Overcast
6:55 AM 30.2 °F 23.4 °F 26.6 °F 86% 29.98 in 10.0 mi WSW 6.9 mph - N/A   Overcast
7:15 AM 30.2 °F 24.3 °F 26.6 °F 86% 29.98 in 10.0 mi SW 5.8 mph - N/A   Overcast
7:35 AM 30.2 °F 24.3 °F 26.6 °F 86% 29.98 in 10.0 mi SW 5.8 mph - N/A   Overcast
7:55 AM 32.0 °F 27.5 °F 28.4 °F 87% 30.00 in 10.0 mi SSW 4.6 mph - N/A   Overcast
8:15 AM 33.8 °F 28.6 °F 26.6 °F 75% 30.00 in 10.0 mi SSW 5.8 mph - N/A   Overcast
8:35 AM 28.4 °F 22.2 °F 26.6 °F 93% 30.00 in 10.0 mi SSE 5.8 mph - N/A   Scattered Clouds
8:55 AM 30.2 °F 24.3 °F 26.6 °F 86% 30.00 in 10.0 mi South 5.8 mph - N/A   Clear
9:15 AM 32.0 °F 25.6 °F 28.4 °F 87% 30.00 in 10.0 mi South 6.9 mph - N/A   Clear
9:35 AM 33.8 °F 29.6 °F 26.6 °F 75% 30.01 in 10.0 mi SSE 4.6 mph - N/A   Clear
9:55 AM 35.6 °F 30.7 °F 28.4 °F 75% 30.01 in 10.0 mi South 5.8 mph - N/A   Clear
10:15 AM 35.6 °F 30.7 °F 28.4 °F 75% 30.01 in 10.0 mi SSW 5.8 mph - N/A   Clear
10:35 AM 37.4 °F 31.4 °F 30.2 °F 75% 30.00 in 10.0 mi SSW 8.1 mph - N/A   Clear
10:55 AM 37.4 °F 32.8 °F 30.2 °F 75% 30.00 in 10.0 mi SSW 5.8 mph - N/A   Clear
11:15 AM 37.4 °F 30.3 °F 30.2 °F 75% 29.99 in 10.0 mi South 10.4 mph - N/A   Clear
11:35 AM 39.2 °F 34.2 °F 30.2 °F 70% 29.98 in 10.0 mi SSW 6.9 mph - N/A   Clear
11:55 AM 39.2 °F 34.2 °F 30.2 °F 70% 29.98 in 10.0 mi SSW 6.9 mph - N/A   Clear
12:15 PM 39.2 °F 33.6 °F 30.2 °F 70% 29.97 in 10.0 mi South 8.1 mph - N/A   Clear
12:35 PM 39.2 °F 32.5 °F 30.2 °F 70% 29.97 in 10.0 mi South 10.4 mph - N/A   Clear
12:55 PM 39.2 °F 32.5 °F 32.0 °F 75% 29.96 in 10.0 mi South 10.4 mph - N/A   Clear
1:15 PM 39.2 °F 32.0 °F 32.0 °F 75% 29.96 in 10.0 mi South 11.5 mph - N/A   Clear
1:35 PM 41.0 °F 36.4 °F 30.2 °F 65% 29.95 in 10.0 mi SSW 6.9 mph - N/A   Clear
1:55 PM 41.0 °F 34.3 °F 30.2 °F 65% 29.95 in 10.0 mi SSW 11.5 mph - N/A   Clear
2:15 PM 41.0 °F 35.2 °F 32.0 °F 70% 29.95 in 10.0 mi SSW 9.2 mph - N/A   Clear
2:35 PM 42.8 °F 38.6 °F 30.2 °F 61% 29.95 in 10.0 mi SSW 6.9 mph - N/A   Clear
2:55 PM 42.8 °F 38.0 °F 30.2 °F 61% 29.95 in 10.0 mi SSW 8.1 mph - N/A   Clear
3:15 PM 42.8 °F 38.6 °F 30.2 °F 61% 29.94 in 10.0 mi SW 6.9 mph - N/A   Clear
3:35 PM 42.8 °F 40.1 °F 30.2 °F 61% 29.94 in 10.0 mi SW 4.6 mph - N/A   Clear
3:55 PM 41.0 °F 37.1 °F 30.2 °F 65% 29.93 in 10.0 mi WSW 5.8 mph - N/A   Clear
4:15 PM 39.2 °F 35.9 °F 30.2 °F 70% 29.93 in 10.0 mi WSW 4.6 mph - N/A   Clear
4:35 PM 35.6 °F - 28.4 °F 75% 29.93 in 10.0 mi Calm Calm - N/A   Clear
4:55 PM 35.6 °F 30.7 °F 28.4 °F 75% 29.93 in 10.0 mi WSW 5.8 mph - N/A   Clear
5:15 PM 35.6 °F 31.7 °F 26.6 °F 70% 29.93 in 10.0 mi WSW 4.6 mph - N/A   Clear
5:35 PM 37.4 °F - 30.2 °F 75% 29.93 in 10.0 mi Calm Calm - N/A   Clear
5:55 PM 37.4 °F 34.9 °F 30.2 °F 75% 29.93 in 10.0 mi WSW 3.5 mph - N/A   Clear
6:15 PM 35.6 °F 31.7 °F 30.2 °F 81% 29.92 in 10.0 mi WSW 4.6 mph - N/A   Clear
6:35 PM 33.8 °F 29.6 °F 28.4 °F 81% 29.92 in 10.0 mi WSW 4.6 mph - N/A   Clear
6:55 PM 33.8 °F 30.8 °F 26.6 °F 75% 29.91 in 10.0 mi SW 3.5 mph - N/A   Clear
7:15 PM 33.8 °F 30.8 °F 28.4 °F 81% 29.91 in 10.0 mi SW 3.5 mph - N/A   Clear
7:35 PM 32.0 °F - 24.8 °F 75% 29.90 in 10.0 mi Calm Calm - N/A   Clear
8:15 PM 33.8 °F - 28.4 °F 81% 29.90 in 10.0 mi Calm Calm - N/A   Clear
8:35 PM 28.4 °F - 24.8 °F 86% 29.90 in 10.0 mi Calm Calm - N/A   Clear
8:55 PM 33.8 °F - 30.2 °F 87% 29.89 in 10.0 mi Calm Calm - N/A   Clear
9:15 PM 30.2 °F 26.7 °F 28.4 °F 93% 29.89 in 10.0 mi ENE 3.5 mph - N/A   Clear
9:36 PM 32.0 °F - 28.4 °F 87% 29.89 in 10.0 mi Calm Calm - N/A   Clear
9:55 PM 30.2 °F - 26.6 °F 86% 29.88 in 10.0 mi Calm Calm - N/A   Clear
10:15 PM 32.0 °F - 30.2 °F 93% 29.88 in 10.0 mi Calm Calm - N/A   Clear
10:35 PM 30.2 °F - 30.2 °F 100% 29.87 in 10.0 mi Calm Calm - N/A   Clear
10:55 PM 30.2 °F - 26.6 °F 86% 29.87 in 10.0 mi Calm Calm - N/A   Clear
11:15 PM 26.6 °F 21.2 °F 24.8 °F 93% 29.86 in 10.0 mi North 4.6 mph - N/A   Clear
11:35 PM 32.0 °F - 30.2 °F 93% 29.86 in 10.0 mi Calm Calm - N/A   Clear
11:55 PM 30.2 °F 26.7 °F 26.6 °F 86% 29.86 in 10.0 mi South 3.5 mph - N/A   Clear